| time (UTC) | temp C | wind direction | speed KPH | gust KPH | rain 1hr cm | rain 24hr cm | rain mn cm | humidity % | barometer mb |
| 20260507101328 | 2 | 177 | 0.0 | 0.0 | 0.00 | 0.00 | 0.00 | 99 | 1008.3 |
| 20260507100826 | 2 | 177 | 0.0 | 0.0 | 0.00 | 0.00 | 0.00 | 99 | 1008.3 |
| 20260507100324 | 2 | 177 | 0.0 | 0.0 | 0.00 | 0.00 | 0.00 | 99 | 1008.4 |
| 20260507095821 | 2 | 177 | 0.0 | 0.0 | 0.00 | 0.00 | 0.00 | 99 | 1008.2 |
| 20260507095317 | 2 | 177 | 0.0 | 0.0 | 0.00 | 0.00 | 0.00 | 99 | 1008.1 |
| 20260507094815 | 1 | 177 | 0.0 | 0.0 | 0.00 | 0.00 | 0.00 | 99 | 1008.1 |
| 20260507094311 | 1 | 177 | 0.0 | 0.0 | 0.00 | 0.00 | 0.00 | 99 | 1008.2 |
| 20260507093808 | 1 | 177 | 0.0 | 0.0 | 0.00 | 0.00 | 0.00 | 99 | 1008.5 |
| 20260507093307 | 1 | 177 | 0.0 | 0.0 | 0.00 | 0.00 | 0.00 | 99 | 1008.1 |
| 20260507092804 | 1 | 177 | 0.0 | 0.0 | 0.00 | 0.00 | 0.00 | 99 | 1008.2 |
| 20260507092300 | 1 | 177 | 0.0 | 0.0 | 0.00 | 0.00 | 0.00 | 99 | 1008.5 |
| 20260507091756 | 1 | 177 | 0.0 | 0.0 | 0.00 | 0.00 | 0.00 | 99 | 1008.2 |
| 20260507091253 | 1 | 177 | 0.0 | 0.0 | 0.00 | 0.00 | 0.00 | 99 | 1008.3 |
| 20260507090753 | 1 | 178 | 0.0 | 0.0 | 0.00 | 0.00 | 0.00 | 99 | 1008.3 |
| 20260507090250 | 1 | 178 | 0.0 | 0.0 | 0.00 | 0.00 | 0.00 | 99 | 1008.2 |
| 20260507085747 | 1 | 178 | 0.0 | 0.0 | 0.00 | 0.00 | 0.00 | 99 | 1008.0 |
| 20260507085244 | 1 | 178 | 0.0 | 0.0 | 0.00 | 0.00 | 0.00 | 99 | 1007.9 |
| 20260507084741 | 1 | 178 | 0.0 | 0.0 | 0.00 | 0.00 | 0.00 | 99 | 1007.9 |
| 20260507084237 | 1 | 178 | 0.0 | 0.0 | 0.00 | 0.00 | 0.00 | 99 | 1008.0 |
| 20260507083735 | 1 | 178 | 0.0 | 0.0 | 0.00 | 0.00 | 0.00 | 99 | 1007.9 |
| 20260507083231 | 1 | 178 | 0.0 | 0.0 | 0.00 | 0.00 | 0.00 | 99 | 1007.9 |
| 20260507082728 | 1 | 178 | 0.0 | 0.0 | 0.00 | 0.00 | 0.00 | 99 | 1008.0 |
| 20260507082223 | 1 | 178 | 0.0 | 0.0 | 0.00 | 0.00 | 0.00 | 99 | 1008.3 |
| 20260507081721 | 1 | 178 | 0.0 | 0.0 | 0.00 | 0.00 | 0.00 | 99 | 1008.3 |
| 20260507081217 | 2 | 178 | 0.0 | 0.0 | 0.00 | 0.00 | 0.00 | 99 | 1008.4 |
| 20260507080713 | 2 | 178 | 0.0 | 0.0 | 0.00 | 0.00 | 0.00 | 99 | 1008.4 |
| 20260507080210 | 2 | 178 | 0.0 | 0.0 | 0.00 | 0.00 | 0.00 | 99 | 1008.2 |
| 20260507075705 | 2 | 178 | 0.0 | 0.0 | 0.00 | 0.00 | 0.00 | 99 | 1008.4 |
| 20260507075201 | 1 | 178 | 0.0 | 0.0 | 0.00 | 0.00 | 0.00 | 99 | 1008.0 |
| 20260507074658 | 2 | 178 | 0.0 | 0.0 | 0.00 | 0.00 | 0.00 | 98 | 1008.1 |
| 20260507074156 | 2 | 178 | 0.0 | 0.0 | 0.00 | 0.00 | 0.00 | 98 | 1008.1 |
| 20260507073653 | 2 | 178 | 0.0 | 0.0 | 0.00 | 0.00 | 0.00 | 98 | 1008.0 |
| 20260507073149 | 2 | 178 | 0.0 | 0.0 | 0.00 | 0.00 | 0.00 | 98 | 1008.3 |
| 20260507072647 | 2 | 178 | 0.0 | 0.0 | 0.00 | 0.00 | 0.00 | 98 | 1008.3 |
| 20260507072143 | 2 | 178 | 0.0 | 0.0 | 0.00 | 0.00 | 0.00 | 98 | 1008.3 |
| 20260507071641 | 3 | 178 | 0.0 | 0.0 | 0.00 | 0.00 | 0.00 | 98 | 1008.4 |
| 20260507071137 | 3 | 178 | 0.0 | 0.0 | 0.00 | 0.00 | 0.00 | 98 | 1008.4 |
| 20260507070635 | 3 | 178 | 0.0 | 0.0 | 0.00 | 0.00 | 0.00 | 98 | 1008.7 |
| 20260507070131 | 3 | 178 | 0.0 | 0.0 | 0.00 | 0.00 | 0.00 | 98 | 1008.6 |
| 20260507065628 | 3 | 178 | 0.0 | 0.0 | 0.00 | 0.00 | 0.00 | 98 | 1008.5 |
| 20260507065125 | 3 | 178 | 0.0 | 0.0 | 0.00 | 0.00 | 0.00 | 98 | 1008.5 |
| 20260507064622 | 3 | 178 | 0.0 | 0.0 | 0.00 | 0.00 | 0.00 | 98 | 1008.4 |
| 20260507064121 | 3 | 178 | 0.0 | 0.0 | 0.00 | 0.00 | 0.00 | 98 | 1008.3 |
| 20260507063618 | 4 | 178 | 0.0 | 0.0 | 0.00 | 0.00 | 0.00 | 98 | 1008.5 |
| 20260507063115 | 4 | 178 | 0.0 | 0.0 | 0.00 | 0.00 | 0.00 | 98 | 1008.3 |
| 20260507062611 | 4 | 178 | 0.0 | 0.0 | 0.00 | 0.00 | 0.00 | 98 | 1008.2 |
| 20260507062109 | 4 | 178 | 0.0 | 0.0 | 0.00 | 0.00 | 0.00 | 98 | 1008.4 |
| 20260507061607 | 4 | 178 | 0.0 | 0.0 | 0.00 | 0.00 | 0.00 | 98 | 1008.5 |
| 20260507061105 | 4 | 178 | 0.0 | 0.0 | 0.00 | 0.00 | 0.00 | 98 | 1008.4 |
| 20260507060603 | 4 | 178 | 0.0 | 0.0 | 0.00 | 0.00 | 0.00 | 98 | 1008.3 |
| 20260507060059 | 4 | 178 | 0.0 | 0.0 | 0.00 | 0.00 | 0.00 | 98 | 1008.4 |
| 20260507055554 | 5 | 178 | 0.0 | 0.0 | 0.00 | 0.00 | 0.00 | 98 | 1008.3 |
| 20260507055051 | 5 | 178 | 0.0 | 0.0 | 0.00 | 0.00 | 0.00 | 98 | 1008.4 |
| 20260507054547 | 5 | 178 | 0.0 | 0.0 | 0.00 | 0.00 | 0.00 | 98 | 1008.5 |
| 20260507054044 | 5 | 178 | 0.0 | 0.0 | 0.00 | 0.00 | 0.00 | 98 | 1008.6 |
| 20260507053542 | 5 | 178 | 0.0 | 0.0 | 0.00 | 0.00 | 0.00 | 98 | 1008.7 |
| 20260507053041 | 5 | 178 | 0.0 | 0.0 | 0.00 | 0.00 | 0.00 | 98 | 1008.8 |
| 20260507052538 | 5 | 179 | 0.0 | 0.0 | 0.00 | 0.00 | 0.00 | 98 | 1008.9 |
| 20260507052034 | 5 | 165 | 0.0 | 0.0 | 0.00 | 0.00 | 0.00 | 98 | 1008.9 |
| 20260507051532 | 5 | 165 | 0.0 | 0.0 | 0.00 | 0.00 | 0.00 | 98 | 1008.7 |
| 20260507051029 | 5 | 165 | 0.0 | 0.0 | 0.00 | 0.00 | 0.00 | 98 | 1008.7 |
| 20260507050525 | 5 | 165 | 0.0 | 0.0 | 0.00 | 0.00 | 0.00 | 98 | 1009.0 |
| 20260507050022 | 5 | 165 | 0.0 | 0.0 | 0.00 | 0.00 | 0.00 | 98 | 1009.0 |
| 20260507045519 | 5 | 165 | 0.0 | 0.0 | 0.00 | 0.00 | 0.00 | 98 | 1009.0 |
| 20260507045016 | 5 | 165 | 0.0 | 0.0 | 0.00 | 0.00 | 0.00 | 98 | 1009.2 |
| 20260507044513 | 5 | 165 | 0.0 | 0.0 | 0.00 | 0.00 | 0.00 | 98 | 1009.0 |
| 20260507044009 | 5 | 165 | 0.0 | 0.0 | 0.00 | 0.00 | 0.00 | 98 | 1009.1 |
| 20260507043505 | 5 | 165 | 0.0 | 0.0 | 0.00 | 0.00 | 0.00 | 98 | 1009.1 |
| 20260507043003 | 5 | 165 | 0.0 | 0.0 | 0.00 | 0.00 | 0.00 | 98 | 1009.0 |
| 20260507042458 | 5 | 165 | 0.0 | 0.0 | 0.00 | 0.00 | 0.00 | 98 | 1009.1 |
| 20260507041954 | 5 | 165 | 0.0 | 0.0 | 0.00 | 0.00 | 0.00 | 98 | 1008.9 |
| 20260507041451 | 5 | 166 | 0.0 | 0.0 | 0.00 | 0.00 | 0.00 | 98 | 1009.0 |
| 20260507040948 | 5 | 166 | 0.0 | 0.0 | 0.00 | 0.00 | 0.00 | 98 | 1008.8 |
| 20260507040444 | 5 | 166 | 0.0 | 0.0 | 0.00 | 0.00 | 0.00 | 98 | 1008.9 |
| 20260507035940 | 5 | 166 | 0.0 | 0.0 | 0.00 | 2.36 | 2.36 | 98 | 1009.0 |
| 20260507035437 | 5 | 166 | 0.0 | 0.0 | 0.00 | 2.36 | 2.36 | 98 | 1008.8 |
| 20260507034934 | 5 | 166 | 0.0 | 0.0 | 0.00 | 2.36 | 2.36 | 98 | 1008.7 |
| 20260507034430 | 5 | 165 | 0.0 | 0.0 | 0.00 | 2.36 | 2.36 | 98 | 1008.9 |
| 20260507033929 | 5 | 120 | 0.0 | 0.0 | 0.00 | 2.36 | 2.36 | 98 | 1008.7 |
| 20260507033426 | 5 | 114 | 0.0 | 0.0 | 0.00 | 2.36 | 2.36 | 99 | 1008.8 |
| 20260507032923 | 5 | 166 | 0.0 | 0.0 | 0.00 | 2.36 | 2.36 | 99 | 1008.7 |
| 20260507032420 | 5 | 163 | 0.0 | 0.0 | 0.00 | 2.36 | 2.36 | 99 | 1008.7 |
| 20260507031915 | 5 | 159 | 0.0 | 0.0 | 0.00 | 2.36 | 2.36 | 99 | 1009.0 |
| 20260507031412 | 5 | 215 | 1.6 | 3.2 | 0.00 | 2.36 | 2.36 | 99 | 1008.8 |
| 20260507030909 | 5 | 188 | 0.0 | 0.0 | 0.00 | 2.36 | 2.36 | 99 | 1008.7 |
| 20260507030407 | 5 | 188 | 0.0 | 0.0 | 0.00 | 2.36 | 2.36 | 99 | 1008.5 |
| 20260507025903 | 5 | 181 | 0.0 | 0.0 | 0.00 | 2.36 | 2.36 | 99 | 1008.7 |
| 20260507025401 | 5 | 185 | 1.6 | 1.6 | 0.00 | 2.36 | 2.36 | 99 | 1008.7 |
| 20260507024859 | 5 | 185 | 0.0 | 0.0 | 0.00 | 2.36 | 2.36 | 98 | 1008.7 |
| 20260507024355 | 5 | 197 | 0.0 | 0.0 | 0.00 | 2.36 | 2.36 | 98 | 1008.8 |
| 20260507023851 | 5 | 189 | 0.0 | 0.0 | 0.00 | 2.36 | 2.36 | 98 | 1008.5 |
| 20260507023348 | 5 | 189 | 0.0 | 0.0 | 0.00 | 2.36 | 2.36 | 98 | 1008.5 |
| 20260507022845 | 5 | 189 | 0.0 | 0.0 | 0.00 | 2.36 | 2.36 | 98 | 1008.4 |
| 20260507022342 | 5 | 193 | 0.0 | 0.0 | 0.00 | 2.36 | 2.36 | 98 | 1008.5 |
| 20260507021838 | 5 | 200 | 0.0 | 0.0 | 0.00 | 2.36 | 2.36 | 98 | 1008.6 |
| 20260507021333 | 5 | 189 | 0.0 | 0.0 | 0.00 | 2.36 | 2.36 | 98 | 1008.4 |
| 20260507020832 | 5 | 189 | 1.6 | 3.2 | 0.00 | 2.36 | 2.36 | 98 | 1008.5 |
| 20260507020328 | 5 | 188 | 0.0 | 0.0 | 0.00 | 2.36 | 2.36 | 98 | 1009.0 |
| 20260507015825 | 5 | 187 | 0.0 | 0.0 | 0.00 | 2.36 | 2.36 | 98 | 1008.9 |
| 20260507015323 | 5 | 188 | 0.0 | 0.0 | 0.00 | 2.36 | 2.36 | 98 | 1008.6 |
| 20260507014819 | 5 | 186 | 0.0 | 0.0 | 0.00 | 2.36 | 2.36 | 98 | 1008.4 |
| 20260507014315 | 5 | 187 | 0.0 | 0.0 | 0.00 | 2.36 | 2.36 | 98 | 1008.7 |
| 20260507013812 | 5 | 189 | 0.0 | 0.0 | 0.00 | 2.36 | 2.36 | 98 | 1008.6 |
| 20260507013309 | 5 | 188 | 0.0 | 0.0 | 0.00 | 2.36 | 2.36 | 98 | 1008.5 |
| 20260507012807 | 5 | 187 | 0.0 | 0.0 | 0.00 | 2.36 | 2.36 | 98 | 1008.6 |
| 20260507012305 | 5 | 183 | 0.0 | 0.0 | 0.00 | 2.36 | 2.36 | 98 | 1008.4 |
| 20260507011800 | 5 | 188 | 0.0 | 0.0 | 0.00 | 2.36 | 2.36 | 98 | 1008.4 |
| 20260507011256 | 5 | 193 | 0.0 | 0.0 | 0.00 | 2.36 | 2.36 | 98 | 1008.6 |
| 20260507010756 | 5 | 198 | 0.0 | 0.0 | 0.00 | 2.36 | 2.36 | 98 | 1008.6 |
| 20260507010252 | 5 | 207 | 1.6 | 1.6 | 0.00 | 2.36 | 2.36 | 98 | 1008.7 |
| 20260507005750 | 5 | 189 | 0.0 | 1.6 | 0.00 | 2.36 | 2.36 | 98 | 1008.4 |
| 20260507005246 | 5 | 202 | 3.2 | 3.2 | 0.00 | 2.36 | 2.36 | 98 | 1008.5 |
| 20260507004742 | 5 | 182 | 0.0 | 0.0 | 0.00 | 2.36 | 2.36 | 98 | 1008.5 |
| 20260507004240 | 5 | 189 | 0.0 | 1.6 | 0.00 | 2.36 | 2.36 | 98 | 1008.4 |
| 20260507003736 | 5 | 252 | 3.2 | 3.2 | 0.00 | 2.36 | 2.36 | 98 | 1008.4 |
| 20260507003231 | 5 | 249 | 1.6 | 3.2 | 0.00 | 2.36 | 2.36 | 98 | 1008.1 |
| 20260507002728 | 5 | 325 | 4.8 | 6.4 | 0.00 | 2.36 | 2.36 | 97 | 1007.9 |
| 20260507002224 | 5 | 187 | 0.0 | 1.6 | 0.00 | 2.36 | 2.36 | 97 | 1008.1 |
| 20260507001721 | 5 | 172 | 0.0 | 0.0 | 0.00 | 2.36 | 2.36 | 97 | 1007.7 |
| 20260507001218 | 6 | 237 | 1.6 | 3.2 | 0.00 | 2.36 | 2.36 | 97 | 1007.7 |
| 20260507000714 | 6 | 145 | 0.0 | 0.0 | 0.00 | 2.36 | 2.36 | 97 | 1007.7 |
| 20260507000212 | 6 | 156 | 0.0 | 0.0 | 0.00 | 2.36 | 2.36 | 97 | 1007.5 |
| 20260506235707 | 6 | 127 | 0.0 | 1.6 | 0.00 | 2.36 | 2.36 | 97 | 1007.1 |
| 20260506235202 | 6 | 41 | 3.2 | 3.2 | 0.00 | 2.36 | 2.36 | 97 | 1007.4 |
| 20260506234700 | 6 | 148 | 0.0 | 0.0 | 0.00 | 2.36 | 2.36 | 97 | 1007.3 |
| 20260506234157 | 6 | 127 | 0.0 | 0.0 | 0.13 | 2.36 | 2.36 | 97 | 1007.3 |
| 20260506233654 | 6 | 58 | 1.6 | 3.2 | 0.30 | 2.36 | 2.36 | 96 | 1007.1 |
| 20260506233151 | 6 | 147 | 0.0 | 1.6 | 0.48 | 2.34 | 2.34 | 96 | 1007.0 |
| 20260506232647 | 6 | 304 | 3.2 | 4.8 | 0.61 | 2.34 | 2.34 | 96 | 1007.1 |
| 20260506232143 | 6 | 48 | 4.8 | 6.4 | 0.30 | 2.26 | 2.26 | 96 | 1007.2 |
| 20260506231640 | 8 | 204 | 8.0 | 9.7 | 0.18 | 2.24 | 2.24 | 95 | 1007.0 |
| 20260506231139 | 8 | 168 | 0.0 | 0.0 | 0.00 | 2.21 | 2.21 | 96 | 1006.5 |
| 20260506230635 | 8 | 117 | 0.0 | 0.0 | 0.13 | 2.21 | 2.21 | 96 | 1006.3 |
| 20260506230132 | 8 | 185 | 0.0 | 0.0 | 0.30 | 2.21 | 2.21 | 95 | 1006.6 |
| 20260506225628 | 8 | 183 | 0.0 | 0.0 | 0.48 | 2.18 | 2.18 | 95 | 1006.3 |
| 20260506225125 | 8 | 152 | 0.0 | 0.0 | 0.66 | 2.18 | 2.18 | 94 | 1006.4 |
| 20260506224622 | 8 | 138 | 0.0 | 0.0 | 0.48 | 2.13 | 2.13 | 94 | 1006.1 |
| 20260506224118 | 8 | 128 | 0.0 | 0.0 | 0.13 | 2.08 | 2.08 | 93 | 1006.0 |
| 20260506223614 | 8 | 128 | 0.0 | 0.0 | 0.18 | 2.06 | 2.06 | 91 | 1006.0 |
| 20260506223110 | 9 | 128 | 0.0 | 0.0 | 0.18 | 2.06 | 2.06 | 90 | 1006.0 |
| 20260506222608 | 9 | 128 | 0.0 | 0.0 | 0.00 | 2.03 | 2.03 | 89 | 1005.6 |
| 20260506222104 | 9 | 128 | 0.0 | 0.0 | 0.00 | 2.03 | 2.03 | 88 | 1005.9 |
| 20260506221602 | 9 | 128 | 0.0 | 0.0 | 0.00 | 2.03 | 2.03 | 88 | 1005.7 |
| 20260506221100 | 9 | 189 | 0.0 | 0.0 | 0.00 | 2.03 | 2.03 | 88 | 1005.6 |
| 20260506220555 | 9 | 190 | 0.0 | 0.0 | 0.00 | 2.03 | 2.03 | 87 | 1005.8 |
| 20260506220051 | 9 | 186 | 0.0 | 0.0 | 0.00 | 2.03 | 2.03 | 87 | 1005.7 |
| 20260506215548 | 9 | 186 | 0.0 | 0.0 | 0.00 | 2.03 | 2.03 | 87 | 1005.9 |
| 20260506215043 | 9 | 184 | 0.0 | 0.0 | 0.00 | 2.03 | 2.03 | 87 | 1005.7 |
| 20260506214541 | 10 | 177 | 0.0 | 0.0 | 0.00 | 2.03 | 2.03 | 86 | 1005.6 |
| 20260506214038 | 10 | 176 | 0.0 | 0.0 | 0.00 | 2.03 | 2.03 | 85 | 1005.5 |
| 20260506213536 | 10 | 176 | 0.0 | 0.0 | 0.00 | 2.03 | 2.03 | 84 | 1005.4 |
| 20260506213033 | 10 | 176 | 0.0 | 0.0 | 0.00 | 2.03 | 2.03 | 84 | 1005.7 |
| 20260506212529 | 10 | 178 | 0.0 | 0.0 | 0.00 | 2.03 | 2.03 | 84 | 1005.5 |
| 20260506212024 | 10 | 187 | 0.0 | 0.0 | 0.00 | 2.03 | 2.03 | 84 | 1005.5 |
| 20260506211520 | 10 | 118 | 0.0 | 0.0 | 0.00 | 2.03 | 2.03 | 83 | 1005.3 |
| 20260506211018 | 10 | 118 | 0.0 | 0.0 | 0.00 | 2.03 | 2.03 | 84 | 1005.5 |
| 20260506210514 | 10 | 118 | 0.0 | 0.0 | 0.00 | 2.03 | 2.03 | 83 | 1005.4 |
| 20260506210011 | 10 | 86 | 0.0 | 1.6 | 0.00 | 2.03 | 2.03 | 84 | 1005.9 |
| 20260506205508 | 10 | 169 | 0.0 | 0.0 | 0.00 | 2.03 | 2.03 | 84 | 1005.7 |
| 20260506205003 | 9 | 187 | 1.6 | 1.6 | 0.00 | 2.03 | 2.03 | 83 | 1005.8 |
| 20260506204502 | 9 | 183 | 0.0 | 0.0 | 0.00 | 2.03 | 2.03 | 85 | 1005.8 |
| 20260506203958 | 10 | 188 | 0.0 | 1.6 | 0.00 | 2.03 | 2.03 | 85 | 1005.6 |
| 20260506203456 | 10 | 161 | 0.0 | 0.0 | 0.00 | 2.03 | 2.03 | 84 | 1005.5 |
| 20260506202953 | 10 | 182 | 1.6 | 1.6 | 0.00 | 2.03 | 2.03 | 83 | 1005.5 |
| 20260506202450 | 10 | 159 | 0.0 | 0.0 | 0.00 | 2.03 | 2.03 | 83 | 1005.7 |
| 20260506201946 | 10 | 171 | 0.0 | 0.0 | 0.00 | 2.03 | 2.03 | 82 | 1005.8 |
| 20260506201444 | 10 | 135 | 0.0 | 0.0 | 0.00 | 2.03 | 2.03 | 82 | 1005.9 |
| 20260506200940 | 10 | 75 | 0.0 | 1.6 | 0.00 | 2.03 | 2.03 | 83 | 1005.7 |
| 20260506200436 | 10 | 72 | 1.6 | 1.6 | 0.00 | 2.03 | 2.03 | 83 | 1005.5 |
| 20260506195933 | 10 | 174 | 0.0 | 1.6 | 0.00 | 2.03 | 2.03 | 82 | 1005.5 |
| 20260506195430 | 10 | 204 | 3.2 | 3.2 | 0.00 | 2.03 | 2.03 | 83 | 1005.8 |
| 20260506194926 | 10 | 116 | 0.0 | 0.0 | 0.00 | 2.03 | 2.03 | 84 | 1005.7 |
| 20260506194424 | 10 | 81 | 0.0 | 0.0 | 0.00 | 2.03 | 2.03 | 83 | 1005.7 |
| 20260506193916 | 10 | 157 | 0.0 | 0.0 | 0.00 | 2.03 | 2.03 | 84 | 1005.7 |
| 20260506193413 | 10 | 180 | 0.0 | 0.0 | 0.00 | 2.03 | 2.03 | 85 | 1005.6 |
| 20260506192909 | 9 | 200 | 0.0 | 0.0 | 0.00 | 2.03 | 2.03 | 86 | 1005.8 |
| 20260506192406 | 8 | 96 | 0.0 | 0.0 | 0.00 | 2.03 | 2.03 | 86 | 1005.8 |
| 20260506191903 | 8 | 108 | 0.0 | 0.0 | 0.00 | 2.03 | 2.03 | 88 | 1005.6 |
| 20260506191359 | 8 | 48 | 1.6 | 1.6 | 0.00 | 2.03 | 2.03 | 85 | 1005.9 |
| 20260506190856 | 8 | 94 | 0.0 | 1.6 | 0.00 | 2.03 | 2.03 | 85 | 1005.6 |
| 20260506190353 | 9 | 135 | 0.0 | 0.0 | 0.00 | 2.03 | 2.03 | 86 | 1005.6 |
| 20260506185850 | 8 | 225 | 0.0 | 0.0 | 0.00 | 2.03 | 2.03 | 85 | 1005.7 |
| 20260506185346 | 8 | 44 | 1.6 | 1.6 | 0.00 | 2.03 | 2.03 | 87 | 1006.0 |
| 20260506184843 | 8 | 151 | 0.0 | 0.0 | 0.00 | 2.03 | 2.03 | 89 | 1005.9 |
| 20260506184340 | 8 | 117 | 0.0 | 0.0 | 0.00 | 2.03 | 2.03 | 91 | 1006.0 |
| 20260506183837 | 7 | 110 | 1.6 | 1.6 | 0.00 | 2.03 | 2.03 | 90 | 1006.0 |
| 20260506183332 | 7 | 143 | 0.0 | 0.0 | 0.00 | 2.03 | 2.03 | 91 | 1006.0 |
| 20260506182830 | 7 | 107 | 4.8 | 4.8 | 0.00 | 2.03 | 2.03 | 91 | 1006.0 |
| 20260506182327 | 7 | 55 | 1.6 | 3.2 | 0.00 | 2.03 | 2.03 | 91 | 1005.9 |
| 20260506181825 | 7 | 285 | 0.0 | 0.0 | 0.00 | 2.03 | 2.03 | 92 | 1005.9 |
| 20260506181322 | 7 | 33 | 4.8 | 6.4 | 0.00 | 2.03 | 2.03 | 91 | 1005.7 |
| 20260506180819 | 7 | 104 | 1.6 | 1.6 | 0.00 | 2.03 | 2.03 | 92 | 1005.7 |
| 20260506180315 | 7 | 22 | 0.0 | 1.6 | 0.00 | 2.03 | 2.03 | 92 | 1006.2 |
| 20260506175811 | 7 | 92 | 1.6 | 3.2 | 0.00 | 2.03 | 2.03 | 92 | 1006.0 |
| 20260506175308 | 7 | 146 | 0.0 | 0.0 | 0.00 | 2.03 | 2.03 | 93 | 1006.3 |
| 20260506174806 | 7 | 114 | 0.0 | 0.0 | 0.00 | 2.03 | 2.03 | 93 | 1006.1 |
| 20260506174303 | 7 | 127 | 3.2 | 3.2 | 0.00 | 2.03 | 2.03 | 92 | 1006.2 |
| 20260506173800 | 7 | 163 | 0.0 | 0.0 | 0.00 | 2.03 | 2.03 | 92 | 1005.8 |
| 20260506173257 | 7 | 42 | 1.6 | 3.2 | 0.00 | 2.03 | 2.03 | 93 | 1005.8 |
| 20260506172754 | 7 | 313 | 0.0 | 0.0 | 0.00 | 2.03 | 2.03 | 93 | 1005.6 |
| 20260506172250 | 7 | 56 | 1.6 | 1.6 | 0.00 | 2.03 | 2.03 | 94 | 1005.6 |
| 20260506171748 | 7 | 118 | 0.0 | 0.0 | 0.00 | 2.03 | 2.03 | 95 | 1005.6 |
| 20260506171245 | 7 | 126 | 0.0 | 0.0 | 0.00 | 2.03 | 2.03 | 95 | 1005.5 |
| 20260506170743 | 7 | 122 | 0.0 | 0.0 | 0.00 | 2.03 | 2.03 | 96 | 1005.5 |
| 20260506170239 | 7 | 122 | 0.0 | 0.0 | 0.00 | 2.03 | 2.03 | 96 | 1005.3 |
| 20260506165738 | 7 | 123 | 0.0 | 0.0 | 0.00 | 2.03 | 2.03 | 97 | 1005.0 |
| 20260506165234 | 7 | 106 | 0.0 | 0.0 | 0.00 | 2.03 | 2.03 | 97 | 1005.3 |
| 20260506164732 | 7 | 112 | 0.0 | 0.0 | 0.00 | 2.03 | 2.03 | 98 | 1005.3 |
| 20260506164228 | 7 | 139 | 0.0 | 1.6 | 0.00 | 2.03 | 2.03 | 98 | 1005.4 |
| 20260506163725 | 7 | 110 | 0.0 | 0.0 | 0.00 | 2.03 | 2.03 | 99 | 1005.3 |
| 20260506163220 | 7 | 41 | 3.2 | 4.8 | 0.00 | 2.03 | 2.03 | 99 | 1005.3 |
| 20260506162716 | 7 | 77 | 6.4 | 6.4 | 0.00 | 2.03 | 2.03 | 99 | 1005.3 |
| 20260506162214 | 6 | 7 | 3.2 | 3.2 | 0.00 | 2.03 | 2.03 | 99 | 1005.7 |
| 20260506161711 | 7 | 127 | 1.6 | 1.6 | 0.00 | 2.03 | 2.03 | 99 | 1005.4 |
| 20260506161208 | 7 | 125 | 0.0 | 0.0 | 0.00 | 2.03 | 2.03 | 99 | 1005.3 |
| 20260506160700 | 7 | 122 | 0.0 | 0.0 | 0.00 | 2.03 | 2.03 | 99 | 1005.3 |
| 20260506160157 | 6 | 113 | 0.0 | 0.0 | 0.00 | 2.03 | 2.03 | 99 | 1005.5 |
| 20260506155656 | 6 | 124 | 0.0 | 0.0 | 0.00 | 2.03 | 2.03 | 99 | 1005.4 |
| 20260506155152 | 6 | 103 | 0.0 | 1.6 | 0.00 | 2.03 | 2.03 | 99 | 1005.3 |
| 20260506153259 | 6 | 26 | 1.6 | 3.2 | 0.00 | 2.03 | 2.03 | 99 | 1005.5 |
| 20260506152756 | 7 | 120 | 0.0 | 1.6 | 0.00 | 2.03 | 2.03 | 99 | 1005.4 |
| 20260506152254 | 7 | 120 | 0.0 | 0.0 | 0.00 | 2.03 | 2.03 | 99 | 1005.4 |
| 20260506151753 | 6 | 107 | 1.6 | 1.6 | 0.00 | 2.03 | 2.03 | 99 | 1005.3 |
| 20260506151249 | 6 | 48 | 3.2 | 3.2 | 0.00 | 2.03 | 2.03 | 99 | 1005.0 |
| 20260506150745 | 6 | 132 | 0.0 | 1.6 | 0.00 | 2.03 | 2.03 | 99 | 1005.1 |
| 20260506150243 | 6 | 5 | 4.8 | 4.8 | 0.00 | 2.03 | 2.03 | 99 | 1005.0 |
| 20260506145739 | 6 | 108 | 1.6 | 1.6 | 0.00 | 2.03 | 2.03 | 99 | 1005.1 |
| 20260506145236 | 6 | 32 | 1.6 | 3.2 | 0.00 | 2.03 | 2.03 | 99 | 1005.0 |
| 20260506144733 | 6 | 134 | 1.6 | 1.6 | 0.00 | 2.03 | 2.03 | 99 | 1005.2 |
| 20260506144230 | 6 | 53 | 0.0 | 1.6 | 0.00 | 2.03 | 2.03 | 99 | 1005.0 |
| 20260506143728 | 6 | 133 | 0.0 | 0.0 | 0.00 | 2.03 | 2.03 | 99 | 1005.3 |
| 20260506143225 | 6 | 128 | 0.0 | 0.0 | 0.00 | 2.03 | 2.03 | 99 | 1005.1 |
| 20260506142724 | 6 | 133 | 0.0 | 0.0 | 0.00 | 2.03 | 2.03 | 99 | 1005.1 |
| 20260506142221 | 6 | 65 | 0.0 | 0.0 | 0.00 | 2.03 | 2.03 | 99 | 1005.1 |
| 20260506141719 | 6 | 131 | 0.0 | 0.0 | 0.00 | 2.03 | 2.03 | 99 | 1004.9 |
| 20260506141217 | 6 | 68 | 1.6 | 3.2 | 0.00 | 2.03 | 2.03 | 99 | 1004.8 |
| 20260506140715 | 6 | 134 | 0.0 | 0.0 | 0.13 | 2.03 | 2.03 | 99 | 1004.9 |
| 20260506140211 | 6 | 122 | 0.0 | 0.0 | 0.13 | 2.03 | 2.03 | 99 | 1004.9 |
| 20260506135708 | 6 | 110 | 1.6 | 1.6 | 0.00 | 2.01 | 2.01 | 99 | 1004.8 |
| 20260506135204 | 6 | 110 | 1.6 | 1.6 | 0.00 | 2.01 | 2.01 | 99 | 1004.6 |
| 20260506134701 | 6 | 123 | 0.0 | 0.0 | 0.00 | 2.01 | 2.01 | 99 | 1004.6 |
| 20260506134157 | 6 | 129 | 0.0 | 0.0 | 0.00 | 2.01 | 2.01 | 99 | 1004.9 |
| 20260506133655 | 6 | 126 | 0.0 | 0.0 | 0.18 | 2.01 | 2.01 | 99 | 1004.8 |
| 20260506133151 | 6 | 129 | 0.0 | 0.0 | 0.18 | 2.01 | 2.01 | 99 | 1004.9 |
| 20260506132649 | 6 | 129 | 0.0 | 0.0 | 0.00 | 1.98 | 1.98 | 99 | 1004.7 |
| 20260506132145 | 6 | 129 | 0.0 | 0.0 | 0.13 | 1.98 | 1.98 | 99 | 1004.8 |
| 20260506131643 | 6 | 107 | 0.0 | 0.0 | 0.13 | 1.98 | 1.98 | 99 | 1004.7 |
| 20260506131139 | 6 | 143 | 0.0 | 0.0 | 0.18 | 1.96 | 1.96 | 99 | 1004.9 |
| 20260506130636 | 6 | 132 | 0.0 | 0.0 | 0.18 | 1.96 | 1.96 | 99 | 1004.8 |
| 20260506130133 | 6 | 145 | 0.0 | 0.0 | 0.13 | 1.93 | 1.93 | 99 | 1004.6 |
| 20260506125631 | 6 | 156 | 0.0 | 0.0 | 0.13 | 1.93 | 1.93 | 99 | 1004.7 |
| 20260506125129 | 6 | 125 | 0.0 | 0.0 | 0.18 | 1.91 | 1.91 | 99 | 1004.7 |
| 20260506124627 | 6 | 132 | 0.0 | 0.0 | 0.18 | 1.91 | 1.91 | 99 | 1004.7 |
| 20260506124124 | 6 | 147 | 0.0 | 0.0 | 0.18 | 1.91 | 1.91 | 99 | 1004.6 |
| 20260506123622 | 6 | 114 | 0.0 | 1.6 | 0.00 | 1.88 | 1.88 | 99 | 1004.7 |
| 20260506123120 | 6 | 128 | 0.0 | 0.0 | 0.13 | 1.88 | 1.88 | 99 | 1004.6 |
| 20260506122616 | 5 | 131 | 0.0 | 0.0 | 0.13 | 1.88 | 1.88 | 99 | 1004.6 |
| 20260506122115 | 5 | 124 | 0.0 | 0.0 | 0.00 | 1.85 | 1.85 | 99 | 1004.5 |
| 20260506121612 | 6 | 138 | 0.0 | 0.0 | 0.00 | 1.85 | 1.85 | 99 | 1004.7 |
| 20260506121108 | 6 | 124 | 0.0 | 0.0 | 0.00 | 1.85 | 1.85 | 99 | 1004.6 |
| 20260506120606 | 6 | 125 | 0.0 | 0.0 | 0.00 | 1.85 | 1.85 | 99 | 1004.5 |
| 20260506120103 | 6 | 131 | 0.0 | 0.0 | 0.18 | 1.85 | 1.85 | 99 | 1004.6 |
| 20260506115601 | 6 | 125 | 0.0 | 0.0 | 0.18 | 1.85 | 1.85 | 99 | 1004.6 |
| 20260506115059 | 6 | 125 | 0.0 | 0.0 | 0.00 | 1.83 | 1.83 | 99 | 1005.0 |
| 20260506114556 | 6 | 117 | 0.0 | 0.0 | 0.18 | 1.83 | 1.83 | 99 | 1005.0 |
| 20260506114054 | 6 | 124 | 0.0 | 0.0 | 0.18 | 1.83 | 1.83 | 99 | 1004.7 |
| 20260506113552 | 6 | 125 | 0.0 | 0.0 | 0.13 | 1.80 | 1.80 | 99 | 1004.8 |
| 20260506113049 | 6 | 125 | 0.0 | 0.0 | 0.13 | 1.80 | 1.80 | 99 | 1004.7 |
| 20260506112546 | 6 | 122 | 0.0 | 1.6 | 0.18 | 1.78 | 1.78 | 99 | 1004.6 |
| 20260506112043 | 6 | 120 | 0.0 | 0.0 | 0.18 | 1.78 | 1.78 | 99 | 1004.3 |
| 20260506111541 | 6 | 132 | 0.0 | 0.0 | 0.13 | 1.75 | 1.75 | 99 | 1004.5 |
| 20260506111038 | 6 | 125 | 0.0 | 0.0 | 0.13 | 1.75 | 1.75 | 99 | 1004.6 |
| 20260506110535 | 6 | 125 | 0.0 | 0.0 | 0.00 | 1.73 | 1.73 | 99 | 1004.2 |
| 20260506110033 | 6 | 128 | 0.0 | 0.0 | 0.18 | 1.73 | 1.73 | 99 | 1004.3 |
| 20260506105528 | 6 | 132 | 0.0 | 0.0 | 0.18 | 1.73 | 1.73 | 99 | 1004.2 |
| 20260506105026 | 6 | 132 | 0.0 | 0.0 | 0.18 | 1.73 | 1.73 | 99 | 1004.2 |
| 20260506104524 | 6 | 113 | 1.6 | 3.2 | 0.13 | 1.70 | 1.70 | 99 | 1004.1 |
| 20260506104022 | 6 | 117 | 0.0 | 0.0 | 0.13 | 1.70 | 1.70 | 99 | 1004.3 |
| 20260506103519 | 6 | 97 | 0.0 | 0.0 | 0.18 | 1.68 | 1.68 | 99 | 1004.3 |
| 20260506103015 | 6 | 123 | 0.0 | 0.0 | 0.18 | 1.68 | 1.68 | 99 | 1004.3 |
| 20260506102514 | 6 | 123 | 0.0 | 0.0 | 0.13 | 1.65 | 1.65 | 99 | 1004.5 |
| 20260506102011 | 6 | 52 | 1.6 | 3.2 | 0.13 | 1.65 | 1.65 | 99 | 1004.6 |